Location: Eschertshofen
(49.3064°N, 11.5756°E)
Time: 23:11:46
(UTC+00:00)

Resurs 01 Rocket - Pass Details

Date: 18 September 2020
Orbit: 633 x 645 km, 98.0° (Epoch: 31 October)

Event Time Altitude Azimuth Distance (km) Brightness Sun altitude
Exits shadow 19:19:14 45° 113° (ESE) 878 1.8 -19.6°
Maximum altitude 19:20:09 55° 71° (ENE) 783 1.8 -19.7°
Drops below altitude 10° 19:24:31 10° 354° (N) 2,054 4.7 -20.3°
Sets 19:26:46 0° 350° (N) 2,967 5.6 -20.7°
